Location: *
(51.0333°S, 178.4667°E)
Time: 16:19:24
(UTC+00:00)

STARLINK-76 - Pass Details

Date: 15 November 2019
Orbit: 529 x 530 km, 53.0° (Epoch: 15 December)

Event Time Altitude Azimuth Distance (km) Brightness Sun altitude
Rises 11:34:40 0° 250° (WSW) 2,695 7.5 -20.4°
Reaches altitude 10° 11:36:54 10° 253° (WSW) 1,802 6.5 -20.4°
Enters shadow 11:40:55 62° 330° (NNW) 610 3.5 -20.5°
